Location: La Chapelle
(48.3135°N, 1.3085°W)
Time: 21:54:41
(UTC+00:00)

Daily predictions for brighter satellites

Satellite Brightness Start Highest point End
(mag) Time Altitude Azimuth Time Altitude Azimuth Time Altitude Azimuth
USA 307 3.7 18:16:26 10° W 18:20:36 48° NNW 18:24:45 10° ENE
FALCON 9 DEB 3.5 18:19:07 10° WNW 18:22:30 52° NNE 18:25:51 10° E
ATLAS CENTAUR R/B 2.7 18:21:19 10° SSE 18:23:39 16° ESE 18:26:00 10° ENE
USA 306 3.7 18:19:53 10° W 18:24:01 46° NNW 18:28:09 10° ENE
FALCON 9 DEB 4.1 18:23:30 10° WNW 18:26:26 34° N 18:29:23 10° ENE
Cosmos 44 Rocket 3.5 18:21:11 10° NW 18:26:28 77° NE 18:31:40 10° SE
ERS-2 3.0 18:24:43 10° NE 18:27:57 29° E 18:31:11 10° SSE
FALCON 9 DEB 4.1 18:25:24 10° WNW 18:28:23 35° N 18:31:23 10° ENE
Cosmos 1844 Rocket 3.2 18:23:32 10° NNW 18:28:48 40° NE 18:34:00 10° ESE
Cosmos 2084 Rocket 3.6 18:24:34 10° NW 18:28:52 63° NE 18:33:17 10° SE
Okean-O 2.7 18:24:31 10° SSE 18:28:52 58° ENE 18:33:13 10° N
CSL-04 Rocket 4.1 18:25:10 10° SE 18:30:22 43° ENE 18:35:33 10° N
USA 308 3.7 18:27:06 10° W 18:31:14 45° NNW 18:35:21 10° ENE
CSL-04 Debris 4.5 18:26:31 10° SE 18:31:41 47° ENE 18:36:55 10° N
Cosmos 1271 Rocket 3.1 18:29:50 10° NNW 18:33:34 67° W 18:37:17 10° S
Cosmos 1666 4.4 18:32:24 10° ESE 18:34:13 13° E 18:36:03 10° NE
Cosmos 1503 Rocket 4.2 18:30:29 10° NNW 18:35:32 49° ENE 18:40:33 10° SE
HJ-1C 3.7 18:33:36 10° SE 18:36:45 42° ENE 18:39:54 10° N
H-2A R/B 3.6 18:33:03 10° N 18:36:52 38° WNW 18:40:41 10° SW
SKYMED 2 4.0 18:33:43 10° N 18:38:03 70° WNW 18:42:22 10° SSW
MOS 1 Rocket 4.1 18:34:06 10° N 18:39:06 64° WNW 18:44:18 10° SSW
PSLV R/B 4.1 18:35:07 10° NNE 18:39:08 51° E 18:43:05 10° S
Cosmos 1844 4.2 18:35:07 10° NNW 18:40:36 42° NE 18:46:00 10° ESE
Cosmos 1470 Rocket 3.8 18:37:42 10° SSE 18:41:58 46° E 18:46:14 10° NNE
CZ-4B R/B 1.9 18:40:09 10° N 18:43:08 56° WNW 18:46:09 10° SSW
Cosmos 2360 Rocket 2.7 18:39:07 10° S 18:44:13 36° ESE 18:49:23 10° NE
Cosmos 2278 Rocket 3.9 18:41:56 10° N 18:45:26 16° NE 18:48:36 11° ENE
Cosmos 1602 3.7 18:41:42 10° S 18:45:35 75° E 18:49:30 10° NNE
Ariane Rocket 4.2 18:42:09 10° ESE 18:45:59 22° ENE 18:49:50 10° N
Meteor 1-19 Rocket 4.3 18:42:37 10° N 18:48:38 79° ENE 18:54:25 10° SSE
Cosmos 1500 3.5 18:49:09 10° SSE 18:52:40 41° E 18:56:12 10° NNE
Meteor 2-4 Rocket 3.9 18:47:26 10° N 18:53:09 54° ENE 18:58:56 10° SSE
Cosmos 1703 Rocket 4.1 18:49:20 10° N 18:53:25 36° ENE 18:57:27 10° SE
Cosmos 2333 Rocket 3.4 18:50:35 10° SE 18:54:37 20° E 18:58:41 10° NE
Cosmos 1689 Rocket 1.9 18:53:40 10° NNE 18:56:32 65° E 18:59:24 10° S
SL-08 RB Rocket 3.7 18:53:00 10° SSE 18:57:26 60° ENE 19:01:57 10° N
Meteor 2-12 Rocket 4.4 18:52:11 10° S 18:58:08 64° E 19:04:11 10° NNE
ERBS 3.3 18:56:07 10° W 18:59:18 41° NNW 19:02:18 11° NE
Cosmos 1980 Rocket 4.0 18:55:25 10° WSW 19:00:26 31° NW 19:05:30 10° NNE
Cosmos 1933 Rocket 3.7 18:58:40 10° S 19:02:52 50° E 19:07:08 10° NNE
Aureole 2 Rocket 1.7 19:01:37 10° NNW 19:04:10 73° WSW 19:06:38 10° SSE
Cosmos 1862 Rocket 4.1 19:01:06 10° NNW 19:05:34 65° W 19:10:00 10° S
Cosmos 2242 Rocket 3.6 19:07:04 10° N 19:11:34 61° ENE 19:15:59 10° SSE
Resurs 01 Rocket 3.3 19:12:41 16° ENE 19:12:41 16° ENE 19:15:15 10° NNE
Cosmos 2322 Rocket 2.3 19:08:26 10° SSW 19:14:02 82° WNW 19:19:43 10° NNE
Cosmos 1461 4.4 19:09:45 10° WSW 19:14:16 42° NW 19:18:46 10° NNE
Abrixas rocket 1.3 19:13:07 10° W 19:15:37 86° N 19:16:07 52° E
Lacrosse 4 Rocket 3.3 19:13:06 10° SSE 19:14:29 16° SE 19:14:29 16° SE
FALCON 9 DEB 4.1 19:16:42 10° WNW 19:19:38 34° N 19:20:46 25° NE
Helios 1A Rocket 3.2 19:15:48 10° S 19:19:50 67° WSW 19:23:53 10° NNW
Nadezhda 3 Rocket 4.4 19:14:06 10° NNW 19:20:26 69° W 19:26:44 10° S
YAOGAN 1 3.9 19:16:36 10° S 19:20:41 41° W 19:24:49 10° NNW
COSMOS 2428 3.6 19:19:59 10° SSE 19:24:33 25° ESE 19:24:51 25° E
SJ-6B 3.1 19:22:30 23° SE 19:24:42 46° ENE 19:28:35 10° N
ASTEX 1 3.9 19:22:39 10° NNE 19:27:10 36° E 19:30:12 18° SE
Cosmos 2154 Rocket 4.4 19:21:45 10° SSW 19:27:55 67° WNW 19:34:07 10° N
GP-B 3.0 19:24:13 10° S 19:28:38 88° E 19:33:07 10° N
Meteor 1-14 Rocket 4.2 19:23:33 10° SSW 19:29:07 83° WNW 19:34:42 10° N
MOS 1 4.5 19:25:33 17° SE 19:29:40 50° ENE 19:35:08 10° N
Cosmos 2219 Rocket 2.7 19:26:28 10° SSE 19:31:23 33° ESE 19:36:22 10° NE
Meteor 1-11 Rocket 4.0 19:26:38 10° SSE 19:31:58 42° E 19:37:13 10° NNE
FALCON 9 DEB 3.9 19:29:10 10° WNW 19:32:08 35° N 19:32:42 32° NNE
MetOp-A 4.0 19:28:23 10° SSE 19:33:43 75° ENE 19:39:05 10° NNW
OBJECT-B 1.3 19:36:26 42° NE 19:36:26 42° NE 19:39:05 10° N
Cosmos 1992 Rocket 4.5 19:30:56 10° SW 19:36:07 63° WNW 19:41:20 10° NNE
ARGOS 4.2 19:32:50 10° S 19:38:03 47° W 19:43:19 10° NNW
SL-16 R/B 3.2 19:33:23 10° SW 19:38:51 46° NW 19:44:20 10° NNE
Resurs 1-3 4.1 19:38:47 38° E 19:39:14 39° ENE 19:43:20 10° N
SJ 16-02 2.5 19:36:03 10° N 19:39:34 27° NE 19:39:34 27° NE
Okean 1-7 3.0 19:36:20 10° N 19:40:45 82° W 19:45:04 10° S
SeaSat 1 2.5 19:36:03 10° NNE 19:41:01 82° WNW 19:45:57 10° SW
Cosmos 1066 Rocket 4.4 19:37:18 10° N 19:42:53 53° ENE 19:45:41 29° SE
Meteor 1-13 Rocket 4.2 19:37:22 10° N 19:43:20 72° ENE 19:48:31 14° SSE
CZ-4 R/B 4.2 19:41:30 10° SW 19:44:16 19° W 19:47:04 10° NW
USA 234 3.3 19:39:53 21° ENE 19:44:22 58° SE 19:50:47 10° SW
CZ-2C R/B 3.0 19:43:06 10° N 19:48:35 67° WNW 19:53:53 10° SSW
H-2A R/B 4.2 19:44:08 10° SSW 19:48:47 28° W 19:53:27 10° NW
USA 305 3.8 19:45:50 10° WNW 19:49:51 38° N 19:50:56 32° NE
BREEZE-M DEB (TANK) 2.3 19:47:37 10° W 19:50:11 75° N 19:51:09 49° E
IRS-1A Rocket 4.2 19:46:43 21° SSE 19:50:35 73° ENE 19:56:09 10° NNW
Cosmos 2322 3.7 19:45:39 10° S 19:51:16 60° ESE 19:56:53 10° NE
SL-4 R/B 1.5 19:50:51 10° WNW 19:54:12 78° NNW 19:54:12 78° NNW
DMSP B5D2-2 4.0 19:49:09 10° NNE 19:54:25 86° WNW 19:59:38 10° SSW
USA 186 3.4 19:56:42 23° NW 19:56:42 23° NW 19:57:55 10° NNW
Cosmos 1869 Rocket 3.4 19:52:47 10° S 19:57:08 78° E 20:01:33 10° NNE
Gbstr 26 Del rocket 3.7 19:54:41 10° WNW 19:59:20 59° N 20:00:59 41° ENE
FALCON 9 DEB 4.1 19:56:11 10° WNW 19:59:23 38° SW 19:59:26 38° SW
SL-8 Rocket 3.9 19:53:22 10° S 19:59:37 90° W 20:05:52 10° N
USA 307 3.7 19:57:10 10° WNW 20:01:13 39° N 20:01:49 37° NNE
ATLAS CENTAUR R/B 1.7 19:58:35 10° SW 20:02:07 52° NW 20:03:10 37° N
FALCON 9 DEB 4.2 19:59:38 10° WNW 20:01:56 35° NNW 20:01:56 35° NNW
USA 306 3.7 20:00:34 10° WNW 20:04:37 40° N 20:05:03 38° NNE
FALCON 9 DEB 4.3 20:01:40 10° WNW 20:03:59 34° NNW 20:03:59 34° NNW
Cosmos 1378 3.9 20:01:15 10° N 20:03:53 42° N 20:03:53 42° N
Cosmos 1666 3.5 20:05:43 10° SSW 20:09:20 50° WNW 20:12:59 10° N
USA 308 3.7 20:07:48 10° WNW 20:11:51 40° N 20:12:00 40° NNE
Cosmos 1844 Rocket 3.9 20:07:33 10° NW 20:12:40 38° WSW 20:17:46 10° S
Cosmos 2366 rocket 4.0 20:08:20 10° S 20:14:39 86° W 20:21:04 10° N
SL-08 R/B 4.5 20:11:58 26° SSE 20:15:43 63° E 20:22:07 10° NNE
Cosmos 1777 Rocket 4.3 20:10:56 10° NNW 20:16:09 64° WSW 20:18:17 35° S
SPOT 3 Rocket 3.5 20:18:38 63° ENE 20:18:38 63° ENE 20:23:44 10° N
Okean 3 3.8 20:14:43 10° NNW 20:18:56 64° W 20:19:31 57° SW
Cosmos 2333 4.3 20:16:15 10° SSW 20:21:54 77° WNW 20:27:39 10° NNE
Cosmos 2221 Rocket 4.1 20:19:49 10° N 20:23:09 50° N 20:23:09 50° N
Ariane Rocket 3.4 20:22:15 32° S 20:24:31 62° WSW 20:29:36 10° NNW
Cosmos 2360 Rocket 3.3 20:22:47 10° SW 20:28:09 43° NW 20:33:33 10° NNE
Cosmos 2278 Rocket 2.2 20:25:04 10° NNW 20:30:28 63° NE 20:30:28 63° NE
Cosmos 1727 Rocket 4.0 20:29:16 10° NNW 20:35:26 76° W 20:37:44 41° S
Meteor 2-20 4.4 20:30:38 10° N 20:36:46 82° W 20:38:13 55° S
Cosmos 2333 Rocket 2.3 20:32:35 10° SW 20:38:16 73° WNW 20:44:02 10° NNE
Cosmos 1821 Rocket 4.2 20:41:55 56° NE 20:41:55 56° NE 20:46:52 10° NNE
Resurs 01 Rocket 2.9 20:50:14 38° NNW 20:50:14 38° NNW 20:53:01 10° NNW
Cosmos 1000 Rocket 4.4 20:42:22 10° N 20:48:32 81° NE 20:48:32 81° NE
Cosmos 1943 Rocket 3.9 20:45:15 10° N 20:48:24 21° NNE 20:48:24 21° NNE
Lacrosse 4 Rocket 3.9 20:50:10 10° SW 20:50:57 15° SW 20:50:57 15° SW
COSMOS 2428 3.4 21:02:48 10° SW 21:14:01 10° NNE 21:14:04 10° NNE
OBJECT-B 4.4 21:09:30 10° WNW 21:09:30 10° WNW 21:09:35 10° WNW
Cosmos 2219 Rocket 3.1 21:09:51 10° SW 21:15:12 45° NW 21:20:37 10° NNE
Terra 4.3 21:21:50 14° N 21:21:50 14° N 21:22:35 10° N
SJ 16-02 3.5 21:14:26 10° NW 21:16:35 25° NW 21:16:35 25° NW
USA 234 3.5 21:27:15 61° NNW 21:27:26 62° NNW 21:33:51 10° WSW
USA 281 4.3 21:34:30 35° NNE 21:34:30 35° NNE 21:38:41 10° NNW
Cosmos 2369 Rocket 4.2 21:30:23 10° NNW 21:32:29 19° N 21:32:29 19° N
Cosmos 2278 Rocket 4.4 22:09:57 10° NW 22:12:20 19° WNW 22:12:20 19° WNW
